Hourly Data Report for September 21, 2017

All times are specified in Local Standard Time (LST). Add 1 hour to adjust for Daylight Saving Time where and when it is observed.

EDMUNDSTON
NEW BRUNSWICK

47°25'00.000" N
68°19'28.040" W
154.20 m
8101303
71590
ERM

Download Data

Hourly Data (September 2017)
Hourly Data Report for September 21, 2017
Temp Definition
°C
Dew Point Temp Definition
°C
Rel Hum Definition
%
Wind Dir Definition
10's deg

Wind Spd Definition
km/h
Visibility Definition
km
Stn Press Definition
kPa
Hmdx Definition


Wind Chill Definition


Weather Definition


TIME
00:00 6.1 5.2 94 31 4   100.20     LegendNANA
01:00 5.8 5.0 95 30 2   100.23     LegendNANA
02:00 5.4 4.5 94 29 4   100.24     LegendNANA
03:00 4.8 4.0 95 27 4   100.26     LegendNANA
04:00 3.3 2.5 94 29 1   100.29     LegendNANA
05:00 3.1 2.4 95 29 2   100.32     LegendNANA
06:00 2.8 2.1 95 31 3   100.37     LegendNANA
07:00 2.8 2.2 96 31 2   100.41     LegendNANA
08:00 7.3 6.3 93 27 1   100.43     LegendNANA
09:00 11.5 8.4 81 24 5   100.45     LegendNANA
10:00 15.6 9.8 68 23 5   100.45     LegendNANA
11:00 19.1 9.9 55 21 6   100.45     LegendNANA
12:00 21.1 8.0 43 7 6   100.43     LegendNANA
13:00 22.0 6.8 37 32 5   100.37     LegendNANA
14:00 22.7 6.3 35 7 7   100.31     LegendNANA
15:00 23.2 5.7 32 9 6   100.25     LegendNANA
16:00 23.1 5.8 33 18 6   100.23     LegendNANA
17:00 22.1 7.0 38 15 4   100.24     LegendNANA
18:00 19.4 8.9 50 11 5   100.29     LegendNANA
19:00 11.9 8.9 82 35 4   100.36     LegendNANA
20:00 9.5 7.7 89 0 1   100.40     LegendNANA
21:00 7.7 6.4 91   0   100.38     LegendNANA
22:00 6.7 5.7 93 32 3   100.44     LegendNANA
23:00 5.7 4.6 93 34 4   100.44     LegendNANA

Notes on Data Quality.

Legend

  • E = Estimated
  • M = Missing
  • NA = Not Available
  • ‡ = Partner data that is not subject to review by the National Climate Archives
Date modified: